TimePDT,TemperatureF,Dew PointF,Humidity,Sea Level PressureIn,VisibilityMPH,Wind Direction,Wind SpeedMPH,Gust SpeedMPH,PrecipitationIn,Events,Conditions,WindDirDegrees,DateUTC
12:53 AM,64.9,50.0,58,29.88,10.0,SE,11.5,-,N/A,,Clear,140,2013-07-14 07:53:00
1:53 AM,64.9,50.0,58,29.88,10.0,SSE,10.4,-,N/A,,Clear,150,2013-07-14 08:53:00
2:53 AM,64.0,48.9,58,29.88,10.0,SE,8.1,-,N/A,,Clear,140,2013-07-14 09:53:00
3:53 AM,63.0,48.9,60,29.88,10.0,SSE,8.1,-,N/A,,Clear,160,2013-07-14 10:53:00
4:53 AM,63.0,48.9,60,29.88,10.0,SSE,8.1,-,N/A,,Clear,160,2013-07-14 11:53:00
5:53 AM,59.0,51.1,75,29.90,10.0,SSW,5.8,-,N/A,,Clear,200,2013-07-14 12:53:00
6:53 AM,59.0,52.0,78,29.92,10.0,SE,5.8,-,N/A,,Clear,140,2013-07-14 13:53:00
7:53 AM,62.1,53.1,72,29.93,10.0,SE,3.5,-,N/A,,Clear,130,2013-07-14 14:53:00
8:53 AM,66.0,52.0,60,29.94,10.0,Variable,3.5,-,N/A,,Clear,0,2013-07-14 15:53:00
9:53 AM,71.1,53.1,53,29.94,10.0,Calm,Calm,-,N/A,,Clear,0,2013-07-14 16:53:00
10:53 AM,75.9,53.1,45,29.94,10.0,Variable,3.5,-,N/A,,Clear,0,2013-07-14 17:53:00
11:53 AM,80.1,55.0,42,29.93,10.0,South,5.8,-,N/A,,Clear,170,2013-07-14 18:53:00
12:53 PM,84.9,55.9,37,29.92,10.0,Variable,3.5,-,N/A,,Clear,0,2013-07-14 19:53:00
1:53 PM,89.1,57.0,34,29.90,10.0,Variable,5.8,-,N/A,,Clear,0,2013-07-14 20:53:00
2:53 PM,90.0,53.1,28,29.88,10.0,SW,5.8,-,N/A,,Clear,230,2013-07-14 21:53:00
3:53 PM,93.0,42.1,17,29.85,10.0,SW,5.8,-,N/A,,Clear,220,2013-07-14 22:53:00
4:53 PM,93.9,54.0,26,29.83,10.0,SW,5.8,-,N/A,,Clear,230,2013-07-14 23:53:00
5:53 PM,93.9,51.1,23,29.81,10.0,South,10.4,-,N/A,,Clear,190,2013-07-15 00:53:00
6:53 PM,90.0,50.0,25,29.81,10.0,South,10.4,-,N/A,,Clear,190,2013-07-15 01:53:00
7:53 PM,82.9,57.0,41,29.81,10.0,South,11.5,-,N/A,,Clear,180,2013-07-15 02:53:00
8:53 PM,75.9,55.9,50,29.81,10.0,South,10.4,-,N/A,,Clear,180,2013-07-15 03:53:00
9:53 PM,70.0,55.0,59,29.83,10.0,South,10.4,-,N/A,,Clear,180,2013-07-15 04:53:00
10:53 PM,64.9,54.0,68,29.82,10.0,South,10.4,-,N/A,,Clear,170,2013-07-15 05:53:00
11:53 PM,64.0,53.1,67,29.83,10.0,SSE,9.2,-,N/A,,Clear,160,2013-07-15 06:53:00